[[{"header":{"parameterUnit":"m.s-1","parameterCategory":2,"la1":30.2991,"la2":30.254,"lo1":-89.0895,"lo2":-89.0444,"dy":0.0017,"dx":0.0017,"nx":28,"ny":28,"refTime":"2024-05-19T03:00:00:Z","depth":"0","parameterNumber":2,"parameterNumberName":"U-component_of_CURRENTS"},"data":[0,0,0,0,0,0,0,0,0,0,0,0,0,0,0,0,0,0,0,0,0,0,0,0,0,0,0,0,0,0,0,0,0,0,0,0,0,0,0,0,0,0,0,0,0,0,0,0,0,0,0,0,0,0,0,0,0,0,0.1737,0.1738,0,0.1766,0.1766,0.1765,0.1755,0.1755,0.1755,0.1755,0.1778,0.1778,0.1779,0,0,0,0,0,0,0,0,0,0,0,0,0,0.1615,0.1617,0.1737,0.1739,0.174,0.1766,0.1766,0.1765,0.1755,0.1755,0.1755,0.1755,0.1778,0.1778,0.1779,0,0,0,0,0,0,0,0,0,0,0,0,0,0.1651,0.1618,0.1737,0.1744,0.1745,0.1766,0.1766,0.1765,0.1755,0.1755,0.1755,0.1756,0.1778,0.1778,0.1779,0.178,0,0,0.1781,0.1781,0,0,0,0,0,0,0,0,0.1649,0.1654,0.1742,0.1744,0.1745,0.1764,0.1731,0.1773,0.1755,0.1742,0.1755,0.1756,0.1778,0.1779,0.1772,0.1781,0.1782,0.1781,0.1782,0.1782,0.1782,0,0,0,0,0,0,0,0.1646,0.1653,0.174,0.1743,0.1745,0.1726,0.1731,0.1738,0.1752,0.1744,0.1745,0.1761,0.1778,0.1771,0.1773,0.1782,0.1781,0.1782,0.1782,0.1783,0.1815,0.1816,0,0,0,0,0,0,0.1663,0.1651,0.1739,0.1742,0.1706,0.1729,0.1734,0.1751,0.1752,0.1755,0.1761,0.1761,0.177,0.1772,0.1773,0.1812,0.1782,0.1783,0.1783,0.1815,0.1815,0.1816,0,0,0,0,0,0,0.166,0.167,0.1738,0.1703,0.1712,0.1732,0.1751,0.1752,0.1752,0.1768,0.1768,0.1762,0.177,0.1772,0.1781,0.1812,0.1783,0.1784,0.1814,0.1815,0.1815,0.1866,0,0,0,0,0,0,0.1656,0.1669,0.1684,0.1705,0.1715,0.175,0.1752,0.1753,0.1766,0.1765,0.1769,0.177,0.177,0.178,0.1782,0.1812,0.1784,0.1814,0.1815,0.1815,0.1863,0.1868,0.1872,0,0,0,0,0,0.1652,0.1676,0.1684,0.1695,0.1735,0.1751,0.1752,0.1761,0.1766,0.1761,0.1767,0.1771,0.1787,0.1781,0.1783,0.1814,0.1813,0.1814,0.1815,0.1861,0.1867,0.1872,0,0,0,0,0,0,0.163,0.1679,0.1688,0.1726,0.1737,0.1752,0.1763,0.1765,0.1764,0.1771,0.1772,0.1774,0.1796,0.1791,0.1784,0.1823,0.1803,0.1804,0.1837,0.1842,0.1846,0.1859,0.1785,0,0,0,0,0,0.1635,0.1666,0.1696,0.1724,0.1735,0.1746,0.1756,0.1762,0.1771,0.1771,0.1771,0.1781,0.18,0.1809,0.1814,0.1833,0.1865,0.1854,0.1858,0.1862,0.1872,0.1931,0.1943,0.1819,0.1819,0.1819,0,0,0.1636,0.1668,0.1685,0.1721,0.1734,0.1756,0.175,0.177,0.1789,0.1776,0.1791,0.1794,0.1806,0.183,0.184,0.1831,0.1919,0.1863,0.1867,0.1875,0.1934,0.1946,0.1957,0.182,0.1819,0.1819,0,0,0.1652,0.1681,0.1707,0.1723,0.1755,0.1765,0.1774,0.1787,0.1792,0.1808,0.1811,0.1827,0.1841,0.1859,0.1874,0.1902,0.1937,0.1906,0.1943,0.2001,0.2012,0.2022,0.2106,0.2123,0.191,0.191,0.191,0,0.1648,0.1693,0.1712,0.174,0.1762,0.1773,0.1798,0.1809,0.1819,0.1832,0.1819,0.1857,0.1861,0.1913,0.1924,0.1916,0.1962,0.1927,0.2009,0.202,0.2029,0.2112,0.2131,0.1913,0.1913,0.1912,0.1912,0,0.1682,0.1716,0.1733,0.1777,0.1795,0.182,0.1846,0.1859,0.1869,0.188,0.1915,0.1916,0.1943,0.1949,0.1949,0.202,0.2038,0.2009,0.2002,0.2045,0.213,0.2148,0.1917,0.1916,0.1915,0.1914,0,0,0.1666,0.1743,0.1746,0.1776,0.182,0.1839,0.1879,0.1915,0.195,0.1954,0.1999,0.2021,0.202,0.2035,0.2037,0.2082,0.2195,0.208,0.2081,0.2175,0.2357,0.2373,0.2395,0.2186,0.2189,0.2191,0.2399,0,0.168,0.1747,0.1776,0.1828,0.1864,0.1891,0.1924,0.196,0.1988,0.2029,0.205,0.2087,0.2057,0.2079,0.2121,0.2172,0.2241,0.2143,0.229,0.2296,0.2314,0.2415,0.2312,0.2488,0.2417,0.242,0.2423,0,0.1699,0.1743,0.1802,0.1869,0.1883,0.191,0.1976,0.2008,0.2072,0.2094,0.2138,0.2157,0.2229,0.2189,0.2321,0.2264,0.2323,0.2359,0.2367,0.2376,0.2345,0.2426,0.2524,0.243,0.2451,0.2449,0.2447,0,0.1691,0.176,0.1811,0.1833,0.1904,0.1929,0.1963,0.2023,0.2061,0.2144,0.2186,0.2258,0.2307,0.2381,0.2453,0.2405,0.2606,0.2546,0.2625,0.2628,0.2566,0.2558,0.2596,0.266,0.2659,0.2659,0.2658,0,0.1706,0.174,0.181,0.1837,0.1885,0.1929,0.1984,0.203,0.2102,0.2153,0.2215,0.2279,0.2357,0.2466,0.2518,0.265,0.2668,0.2672,0.2692,0.2582,0.2573,0.2505,0.2437,0.2666,0.2665,0.2663,0.2662,0,0.1689,0.1742,0.1795,0.1864,0.1887,0.1916,0.199,0.2031,0.2102,0.2179,0.2212,0.2334,0.2479,0.2576,0.2722,0.2744,0.278,0.2895,0.2779,0.278,0.2735,0.2672,0.2656,0.2587,0.3026,0.3028,0.3029,0,0.1684,0.1716,0.1799,0.1827,0.1855,0.1907,0.1943,0.2021,0.2064,0.2203,0.224,0.2414,0.2512,0.276,0.2857,0.3008,0.2863,0.2984,0.286,0.276,0.2704,0.2555,0.2485,0.2814,0.2813,0.2813,0.2813,0,0.1651,0.1686,0.1728,0.1799,0.1841,0.1891,0.1946,0.198,0.2069,0.2147,0.2262,0.2361,0.2606,0.2716,0.2923,0.2987,0.2814,0.2983,0.2898,0.2574,0.2395,0.2327,0.2668,0.281,0.281,0.281,0.281,0.281,0.1602,0.1628,0.1692,0.1756,0.1804,0.1848,0.1866,0.1933,0.2001,0.209,0.2218,0.2325,0.2515,0.2795,0.285,0.2879,0.2839,0.2797,0.2749,0.2624,0.248,0.284,0.2978,0.2979,0.298,0.2981,0.2981,0,0.154,0.1593,0.1646,0.1714,0.1745,0.1796,0.1846,0.1848,0.1898,0.2013,0.2109,0.2262,0.2401,0.254,0.2684,0.2635,0.2499,0.2568,0.2304,0.2263,0.2617,0.2528,0.2549,0.2549,0.2549,0.2549,0.2549,0.2549,0.1506,0.1547,0.1596,0.1632,0.1676,0.1682,0.1694,0.1715,0.1768,0.184,0.1911,0.2018,0.2218,0.2377,0.2384,0.2357,0.2158,0.209,0.2079,0.2288,0.2303,0.2317,0.2217,0.2172,0.2172,0.1623,0.1619,0.1615]},{"header":{"parameterUnit":"m.s-1","parameterCategory":2,"la1":30.2991,"la2":30.254,"lo1":-89.0895,"lo2":-89.0444,"dy":0.0017,"dx":0.0017,"nx":28,"ny":28,"refTime":"2024-05-19T03:00:00:Z","depth":"0","parameterNumber":3,"parameterNumberName":"V-component_of_CURRENTS"},"data":[0,0,0,0,0,0,0,0,0,0,0,0,0,0,0,0,0,0,0,0,0,0,0,0,0,0,0,0,0,0,0,0,0,0,0,0,0,0,0,0,0,0,0,0,0,0,0,0,0,0,0,0,0,0,0,0,0,0,0.0215,0.0214,0,0.0155,0.0155,0.0154,0.0101,0.01,0.01,0.0099,-0.0052,-0.0055,-0.0059,0,0,0,0,0,0,0,0,0,0,0,0,0,0.0253,0.0253,0.0215,0.0214,0.0214,0.0156,0.0155,0.0153,0.0101,0.01,0.01,0.0099,-0.0051,-0.0055,-0.0059,0,0,0,0,0,0,0,0,0,0,0,0,0,0.0217,0.0253,0.0215,0.0182,0.0179,0.0156,0.0154,0.0153,0.0101,0.01,0.01,0.0099,-0.0049,-0.0054,-0.006,-0.0082,0,0,-0.0077,-0.0079,0,0,0,0,0,0,0,0,0.0219,0.0215,0.0188,0.0185,0.0181,0.0137,0.0113,0.0071,0.0101,0.0128,0.0099,0.0099,0.0005,-0.0005,-0.0017,-0.0089,-0.0096,-0.0077,-0.0081,-0.0083,-0.0084,0,0,0,0,0,0,0,0.0222,0.0218,0.0188,0.0187,0.0183,0.0161,0.0155,0.0105,0.0066,0.0125,0.0122,0.012,0.0002,-0.0012,-0.0021,-0.0098,-0.0077,-0.0082,-0.0085,-0.0087,-0.026,-0.0261,0,0,0,0,0,0,0.0237,0.022,0.019,0.0187,0.0202,0.0161,0.0154,0.015,0.0069,0.0058,0.012,0.0118,-0.0002,-0.0015,-0.0027,-0.0085,-0.0083,-0.0088,-0.0091,-0.0258,-0.026,-0.0261,0,0,0,0,0,0,0.0238,0.0235,0.0193,0.0204,0.0198,0.0162,0.0156,0.0149,0.0136,0.0067,0.0053,0.0116,-0.0003,-0.0019,-0.0093,-0.009,-0.009,-0.0095,-0.0257,-0.0259,-0.026,-0.0184,0,0,0,0,0,0,0.0239,0.0235,0.0239,0.0205,0.0198,0.0185,0.0157,0.0148,0.0137,0.0132,0.0058,0.0043,-0.0005,-0.0085,-0.0099,-0.0098,-0.01,-0.0255,-0.0258,-0.026,-0.0185,-0.0183,-0.0182,0,0,0,0,0,0.0241,0.0257,0.0239,0.0236,0.0203,0.0186,0.018,0.015,0.0137,0.0135,0.0066,0.0046,-0.0109,-0.009,-0.0106,-0.0107,-0.0254,-0.0257,-0.026,-0.0186,-0.0184,-0.0182,0,0,0,0,0,0,0.0281,0.0252,0.0232,0.0239,0.0214,0.0178,0.0181,0.0157,0.0105,0.0098,0.0027,0.0006,-0.0056,-0.01,-0.0077,-0.0168,-0.0184,-0.019,-0.0122,-0.0121,-0.0119,-0.0071,-0.0104,0,0,0,0,0,0.0291,0.0292,0.0256,0.0263,0.0254,0.0217,0.0208,0.0186,0.0138,0.0117,0.0057,-0.0013,-0.0079,-0.0114,-0.0176,-0.0224,-0.0227,-0.0238,-0.0236,-0.0234,-0.0209,-0.0221,-0.0216,-0.0271,-0.0271,-0.027,0,0,0.0307,0.0294,0.0293,0.0271,0.0251,0.024,0.021,0.0203,0.0183,0.0106,0.0056,-0.0008,-0.0093,-0.0152,-0.0182,-0.0188,-0.0222,-0.0238,-0.0235,-0.0211,-0.0223,-0.0217,-0.0211,-0.0272,-0.0272,-0.0272,0,0,0.0345,0.0331,0.0339,0.032,0.0298,0.0271,0.0272,0.0229,0.0201,0.0145,0.008,0.002,-0.008,-0.0136,-0.0178,-0.0205,-0.0213,-0.0232,-0.018,-0.0192,-0.0186,-0.018,-0.0169,-0.0164,-0.0229,-0.0229,-0.0229,0,0.0362,0.0367,0.034,0.0341,0.0332,0.0287,0.0289,0.0253,0.0187,0.0167,0.0136,0.0005,-0.0068,-0.013,-0.0148,-0.0195,-0.0194,-0.0174,-0.0183,-0.0178,-0.0174,-0.0164,-0.0159,-0.0226,-0.0226,-0.0226,-0.0227,0,0.0396,0.0397,0.0406,0.0384,0.0371,0.0371,0.032,0.0294,0.0254,0.0216,0.0153,0.0056,-0.0013,-0.0056,-0.0114,-0.013,-0.0136,-0.0174,-0.0172,-0.0163,-0.0155,-0.015,-0.0221,-0.0222,-0.0223,-0.0224,0,0,0.043,0.0429,0.0428,0.0429,0.0395,0.039,0.0362,0.0327,0.0323,0.0247,0.0241,0.0114,0.0085,0.0035,-0.0039,-0.0058,-0.0041,-0.0096,-0.0098,-0.0054,-0.0041,-0.0045,-0.004,-0.0074,-0.0073,-0.0073,-0.0042,0,0.0457,0.0478,0.0465,0.0474,0.0477,0.0436,0.0417,0.038,0.0343,0.0322,0.0239,0.0199,0.0111,0.009,0.0055,-0.002,-0.0028,-0.0044,-0.0082,-0.0083,-0.0062,-0.0035,-0.0037,-0.001,-0.0038,-0.0037,-0.0037,0,0.0481,0.0494,0.0515,0.0521,0.0519,0.0516,0.05,0.048,0.0439,0.0417,0.0377,0.032,0.0266,0.02,0.0115,0.0111,0.0051,-0.0001,-0.0002,-0.0022,-0.0078,-0.003,-0.0002,-0.0123,-0.003,-0.0031,-0.0031,0,0.0508,0.0525,0.0549,0.0546,0.0541,0.0545,0.054,0.0509,0.051,0.0494,0.0513,0.0432,0.0412,0.0324,0.0202,0.0168,0.0134,0.0066,0.0013,0.0012,-0.0004,-0.0008,-0.0069,0.0034,0.0033,0.0033,0.0033,0,0.0532,0.0549,0.0566,0.0573,0.0599,0.0589,0.0614,0.0599,0.0608,0.0637,0.0574,0.0593,0.0446,0.0395,0.027,0.0171,0.0186,0.0049,0.0025,0.0019,0.0018,-0.0103,-0.0158,0.0035,0.0034,0.0034,0.0034,0,0.0547,0.0559,0.0582,0.0599,0.0609,0.0624,0.0661,0.0685,0.0701,0.0748,0.0757,0.0725,0.0668,0.0529,0.0401,0.0274,0.0117,0.0128,0.0146,0.0123,-0.006,-0.011,-0.0133,-0.0173,0.0078,0.0078,0.0078,0,0.056,0.0575,0.0599,0.0614,0.0622,0.0656,0.0681,0.0713,0.0756,0.0828,0.0862,0.0847,0.0839,0.067,0.0456,0.0281,0.0154,0.0151,0.0068,-0.0043,-0.0117,-0.0139,-0.0173,0.0077,0.0077,0.0078,0.0078,0,0.058,0.0583,0.0597,0.0629,0.0661,0.071,0.0765,0.0819,0.088,0.0952,0.1041,0.1058,0.0912,0.0746,0.051,0.0358,0.0088,0.0147,0.002,-0.0116,-0.0131,-0.019,0.0042,0.0078,0.0078,0.0078,0.0078,0.0078,0.0589,0.0598,0.0617,0.0646,0.0688,0.0767,0.0833,0.092,0.1029,0.1165,0.1162,0.1223,0.0984,0.0667,0.0462,0.0086,0.0101,-0.0056,-0.0101,-0.0108,-0.0164,0.0087,0.0094,0.0094,0.0094,0.0094,0.0095,0,0.0594,0.061,0.064,0.0685,0.0743,0.077,0.089,0.0986,0.114,0.1255,0.1344,0.1262,0.0959,0.0629,0.0154,-0.0113,-0.0212,-0.0269,-0.0323,-0.0344,-0.0137,-0.0159,-0.0193,-0.0193,-0.0193,-0.0192,-0.0192,-0.0192,0.0602,0.0619,0.0636,0.0727,0.0776,0.0893,0.0978,0.1127,0.124,0.1405,0.1454,0.1469,0.1237,0.0394,-0.0199,-0.0354,-0.0513,-0.0544,-0.0617,-0.0521,-0.0506,-0.0492,-0.0529,-0.0639,-0.0639,-0.0807,-0.0809,-0.0811]}],[{"header":{"parameterUnit":"m.s-1","parameterCategory":2,"la1":30.2991,"la2":30.254,"lo1":-89.0895,"lo2":-89.0444,"dy":0.0017,"dx":0.0017,"nx":28,"ny":28,"refTime":"2024-05-19T03:00:00:Z","depth":"2","parameterNumber":2,"parameterNumberName":"U-component_of_CURRENTS"},"data":[0,0,0,0,0,0,0,0,0,0,0,0,0,0,0,0,0,0,0,0,0,0,0,0,0,0,0,0,0,0,0,0,0,0,0,0,0,0,0,0,0,0,0,0,0,0,0,0,0,0,0,0,0,0,0,0,0,0,0.1458,0.1459,0,0.151,0.151,0.1509,0.152,0.1521,0.1521,0.1522,0.1462,0.146,0.1457,0,0,0,0,0,0,0,0,0,0,0,0,0,0.1355,0.1356,0.1458,0.1459,0.1461,0.151,0.151,0.1509,0.152,0.1521,0.1522,0.1522,0.1462,0.146,0.1457,0,0,0,0,0,0,0,0,0,0,0,0,0,0.1391,0.1356,0.1457,0.1481,0.1485,0.151,0.151,0.1509,0.152,0.1521,0.1522,0.1523,0.1463,0.146,0.1457,0.1415,0,0,0.1446,0.1445,0,0,0,0,0,0,0,0,0.1389,0.1394,0.1476,0.148,0.1484,0.152,0.1453,0.1476,0.1519,0.1494,0.1522,0.1523,0.1478,0.1473,0.1465,0.1412,0.1409,0.1446,0.1444,0.1443,0.1442,0,0,0,0,0,0,0,0.1387,0.1392,0.1466,0.1478,0.1483,0.1487,0.1491,0.1456,0.1468,0.1496,0.15,0.1525,0.1478,0.1469,0.1464,0.1408,0.1446,0.1443,0.1441,0.144,0.1386,0.1387,0,0,0,0,0,0,0.1404,0.1389,0.1465,0.1469,0.1452,0.1488,0.1493,0.1498,0.1471,0.1472,0.1524,0.1525,0.1474,0.1468,0.1462,0.1483,0.1443,0.1439,0.1437,0.1385,0.1386,0.1387,0,0,0,0,0,0,0.1401,0.1409,0.1463,0.1441,0.145,0.149,0.1494,0.1498,0.1502,0.1495,0.1492,0.1527,0.1474,0.1467,0.1462,0.1478,0.1438,0.1435,0.1385,0.1386,0.1386,0.1479,0,0,0,0,0,0,0.1398,0.1407,0.1411,0.1442,0.1452,0.1481,0.1495,0.1499,0.1521,0.1523,0.1496,0.1492,0.1475,0.1467,0.1458,0.1473,0.1432,0.1384,0.1385,0.1386,0.1475,0.1483,0.149,0,0,0,0,0,0.1393,0.1406,0.141,0.1421,0.1457,0.1483,0.1486,0.1511,0.1521,0.1517,0.1521,0.1493,0.1468,0.1465,0.1455,0.1469,0.1383,0.1385,0.1386,0.1472,0.1482,0.149,0,0,0,0,0,0,0.1372,0.1411,0.1416,0.1441,0.1461,0.1489,0.1504,0.1513,0.1511,0.1521,0.1499,0.1495,0.1497,0.1465,0.1462,0.1456,0.142,0.1419,0.1489,0.1498,0.1505,0.1511,0.1429,0,0,0,0,0,0.1368,0.1375,0.1416,0.1429,0.1447,0.147,0.1485,0.1503,0.1516,0.1517,0.1504,0.1493,0.1489,0.1482,0.1464,0.1453,0.1468,0.1454,0.1462,0.1468,0.1466,0.152,0.1533,0.1391,0.1391,0.1391,0,0,0.1364,0.1388,0.1392,0.1424,0.1443,0.1467,0.1478,0.151,0.1527,0.1508,0.1517,0.1513,0.1492,0.1498,0.1494,0.1476,0.1522,0.147,0.1476,0.147,0.1523,0.1538,0.155,0.1392,0.1392,0.1392,0,0,0.1369,0.138,0.1395,0.1411,0.1457,0.1472,0.1484,0.1516,0.1527,0.1539,0.1543,0.1556,0.1527,0.1534,0.1531,0.1558,0.156,0.1548,0.1588,0.1643,0.1655,0.1667,0.1736,0.1752,0.1551,0.1551,0.1551,0,0.1355,0.1384,0.1402,0.1427,0.145,0.1476,0.1502,0.1514,0.1538,0.1557,0.1551,0.1567,0.1546,0.1578,0.1596,0.1575,0.1615,0.1563,0.1656,0.1667,0.1677,0.1745,0.1762,0.1556,0.1555,0.1555,0.1554,0,0.1385,0.14,0.1414,0.1444,0.1467,0.1492,0.1529,0.1548,0.1567,0.1588,0.1624,0.1619,0.1636,0.1632,0.1621,0.1681,0.1693,0.1665,0.1642,0.1698,0.1765,0.1781,0.1562,0.1561,0.1559,0.1558,0,0,0.1358,0.1417,0.1418,0.1432,0.148,0.1498,0.154,0.1584,0.162,0.1642,0.1693,0.1697,0.1716,0.1713,0.1712,0.1749,0.1864,0.1744,0.1744,0.1827,0.2015,0.1974,0.1988,0.1868,0.1871,0.1873,0.2046,0,0.1365,0.1407,0.1441,0.1467,0.1493,0.153,0.156,0.1606,0.1646,0.1697,0.1728,0.1766,0.1742,0.177,0.181,0.1845,0.1906,0.182,0.1934,0.1937,0.1906,0.2004,0.179,0.1922,0.2062,0.2065,0.2067,0,0.1391,0.1407,0.1449,0.1481,0.1497,0.152,0.1586,0.1619,0.1704,0.1742,0.1809,0.1839,0.1913,0.1877,0.1993,0.1949,0.1993,0.2016,0.2023,0.1956,0.1925,0.188,0.1946,0.2094,0.2092,0.209,0.2088,0,0.1378,0.1412,0.1443,0.1454,0.1503,0.1531,0.156,0.1639,0.168,0.1791,0.1849,0.1931,0.1991,0.2055,0.2111,0.2074,0.2239,0.2191,0.2201,0.22,0.2021,0.1999,0.2283,0.2283,0.2283,0.2282,0.2282,0,0.1382,0.1396,0.1436,0.1447,0.1472,0.152,0.1572,0.1623,0.1716,0.1782,0.1877,0.1952,0.204,0.214,0.2172,0.2254,0.2302,0.2235,0.2247,0.2049,0.2028,0.2157,0.2139,0.2289,0.2287,0.2286,0.2285,0,0.1375,0.1407,0.1431,0.1466,0.1476,0.15,0.1563,0.1601,0.1705,0.1807,0.1854,0.2004,0.2141,0.2228,0.2347,0.2335,0.2405,0.2418,0.2191,0.2172,0.2318,0.2304,0.2459,0.2459,0.2459,0.2459,0.2459,0,0.137,0.1389,0.1429,0.1443,0.1459,0.1494,0.1517,0.1593,0.1643,0.1829,0.1876,0.2057,0.2159,0.2338,0.2338,0.2418,0.2466,0.2284,0.215,0.2343,0.234,0.2325,0.2311,0.1971,0.1967,0.1964,0.1961,0,0.1342,0.1377,0.1404,0.1426,0.1447,0.1471,0.1514,0.154,0.1651,0.1746,0.1885,0.1988,0.2146,0.2131,0.2241,0.225,0.2247,0.2221,0.2507,0.1947,0.1893,0.1886,0.1886,0.1932,0.1935,0.1937,0.1939,0.194,0.1325,0.1338,0.1382,0.1417,0.1438,0.1457,0.1454,0.1516,0.1586,0.1693,0.1791,0.188,0.1928,0.1976,0.1967,0.1974,0.211,0.2032,0.2038,0.2048,0.1948,0.1896,0.1919,0.1922,0.1924,0.1926,0.1928,0,0.1301,0.1335,0.1355,0.1395,0.1405,0.1433,0.1458,0.1436,0.1495,0.1583,0.1658,0.1551,0.1574,0.1668,0.16,0.1623,0.1563,0.1604,0.1491,0.1522,0.1549,0.1418,0.1251,0.1249,0.1248,0.1246,0,0,0.1282,0.1312,0.1339,0.1362,0.1386,0.1365,0.1368,0.1347,0.1372,0.1369,0.1393,0.1467,0.1578,0.1357,0.1351,0.1294,0.1394,0.1256,0.1797,0.169,0.1714,0.1797,0.1631,0,0,0,0,0]},{"header":{"parameterUnit":"m.s-1","parameterCategory":2,"la1":30.2991,"la2":30.254,"lo1":-89.0895,"lo2":-89.0444,"dy":0.0017,"dx":0.0017,"nx":28,"ny":28,"refTime":"2024-05-19T03:00:00:Z","depth":"2","parameterNumber":3,"parameterNumberName":"V-component_of_CURRENTS"},"data":[0,0,0,0,0,0,0,0,0,0,0,0,0,0,0,0,0,0,0,0,0,0,0,0,0,0,0,0,0,0,0,0,0,0,0,0,0,0,0,0,0,0,0,0,0,0,0,0,0,0,0,0,0,0,0,0,0,0,0.0005,0.0005,0,-0.0026,-0.0026,-0.0027,-0.0058,-0.0058,-0.0058,-0.0058,-0.0228,-0.0232,-0.0237,0,0,0,0,0,0,0,0,0,0,0,0,0,0.0046,0.0045,0.0005,0.0005,0.0005,-0.0026,-0.0026,-0.0027,-0.0058,-0.0058,-0.0058,-0.0058,-0.0227,-0.0232,-0.0237,0,0,0,0,0,0,0,0,0,0,0,0,0,0.0019,0.0044,0.0005,-0.0011,-0.0012,-0.0025,-0.0026,-0.0028,-0.0058,-0.0058,-0.0058,-0.0058,-0.0225,-0.0231,-0.0238,-0.0279,0,0,-0.0259,-0.0262,0,0,0,0,0,0,0,0,0.002,0.0017,-0.0009,-0.001,-0.0012,-0.0034,-0.0074,-0.0117,-0.0058,-0.0045,-0.0058,-0.0058,-0.0173,-0.0184,-0.0194,-0.0287,-0.0294,-0.0259,-0.0263,-0.0266,-0.0268,0,0,0,0,0,0,0,0.0022,0.0018,-0.0012,-0.0009,-0.001,-0.0013,-0.0017,-0.0082,-0.0115,-0.0046,-0.0047,-0.0044,-0.0176,-0.0187,-0.0199,-0.0297,-0.0259,-0.0265,-0.0269,-0.0272,-0.0483,-0.0484,0,0,0,0,0,0,0.0034,0.0019,-0.0011,-0.0012,0.0009,-0.0013,-0.0019,-0.003,-0.0111,-0.0121,-0.0044,-0.0045,-0.0176,-0.0191,-0.0205,-0.0281,-0.0266,-0.0273,-0.0276,-0.0481,-0.0483,-0.0485,0,0,0,0,0,0,0.0034,0.0031,-0.0009,0.0007,0.0003,-0.0014,-0.0027,-0.0031,-0.0038,-0.0107,-0.012,-0.0046,-0.0176,-0.0195,-0.0286,-0.0287,-0.0276,-0.0282,-0.0479,-0.0482,-0.0484,-0.0419,0,0,0,0,0,0,0.0035,0.0031,0.0026,0.0008,0.0002,-0.0011,-0.0027,-0.0031,-0.0034,-0.0036,-0.0114,-0.0129,-0.0178,-0.0275,-0.0292,-0.0296,-0.0287,-0.0477,-0.048,-0.0483,-0.0419,-0.0418,-0.0418,0,0,0,0,0,0.0037,0.0041,0.0025,0.0022,-0.0005,-0.001,-0.0014,-0.0028,-0.0034,-0.0036,-0.011,-0.0127,-0.0305,-0.0283,-0.0302,-0.0307,-0.0476,-0.0479,-0.0483,-0.0419,-0.0418,-0.0418,0,0,0,0,0,0,0.0067,0.0038,0.0021,0.0017,0.0005,-0.0013,-0.0009,-0.0023,-0.0077,-0.0083,-0.0156,-0.0178,-0.0252,-0.03,-0.0274,-0.038,-0.0389,-0.0397,-0.0334,-0.0334,-0.0334,-0.0279,-0.0293,0,0,0,0,0,0.0069,0.0054,0.0033,0.0031,0.0028,0.0007,0.0004,-0.0004,-0.0048,-0.0069,-0.0131,-0.0207,-0.0282,-0.0323,-0.0391,-0.0457,-0.0461,-0.0473,-0.0472,-0.0471,-0.0443,-0.0461,-0.0457,-0.0496,-0.0496,-0.0496,0,0,0.0078,0.0064,0.0054,0.0035,0.0025,0.0018,0.0005,0.0009,-0.0012,-0.0084,-0.0143,-0.0207,-0.0301,-0.0372,-0.0408,-0.0412,-0.0467,-0.0476,-0.0474,-0.0446,-0.0464,-0.0459,-0.0455,-0.0498,-0.0498,-0.0497,0,0,0.0104,0.008,0.0079,0.0066,0.0059,0.0042,0.0045,0.002,-0.0005,-0.0066,-0.0129,-0.0191,-0.0306,-0.0365,-0.0414,-0.0455,-0.0462,-0.0483,-0.0437,-0.0455,-0.045,-0.0446,-0.0447,-0.0443,-0.0483,-0.0483,-0.0483,0,0.0113,0.0106,0.0083,0.0082,0.0075,0.0052,0.0054,0.0022,-0.0035,-0.0059,-0.0078,-0.0219,-0.0297,-0.0376,-0.0394,-0.0447,-0.0452,-0.0425,-0.0448,-0.0444,-0.0441,-0.0443,-0.044,-0.048,-0.0481,-0.0481,-0.0481,0,0.0139,0.0127,0.0133,0.0108,0.0099,0.0101,0.006,0.0037,0.0005,-0.0027,-0.0096,-0.019,-0.0261,-0.0307,-0.0368,-0.0396,-0.0404,-0.0438,-0.0432,-0.0432,-0.0436,-0.0434,-0.0477,-0.0478,-0.0478,-0.0479,0,0,0.0163,0.0148,0.0147,0.0138,0.0112,0.0108,0.0075,0.0041,0.0035,-0.0028,-0.0039,-0.017,-0.0182,-0.0237,-0.0309,-0.0333,-0.033,-0.0369,-0.0371,-0.0338,-0.0348,-0.0368,-0.0368,-0.0361,-0.0361,-0.036,-0.0359,0,0.0183,0.0184,0.0173,0.0166,0.0158,0.0128,0.01,0.0066,0.0038,0.0019,-0.0055,-0.0095,-0.0171,-0.0185,-0.0223,-0.0304,-0.032,-0.0325,-0.038,-0.0381,-0.0373,-0.0365,-0.0327,-0.0323,-0.0356,-0.0356,-0.0356,0,0.0209,0.02,0.0204,0.0181,0.0179,0.0175,0.0153,0.0133,0.0099,0.0082,0.0056,0.0012,-0.0043,-0.0091,-0.0189,-0.0186,-0.025,-0.0306,-0.0308,-0.0339,-0.0396,-0.0334,-0.0318,-0.0352,-0.0352,-0.0353,-0.0353,0,0.023,0.022,0.0224,0.0214,0.019,0.0191,0.0182,0.0157,0.0155,0.0151,0.0176,0.01,0.0089,-0.0003,-0.0121,-0.0148,-0.0204,-0.0264,-0.0337,-0.0339,-0.0322,-0.0324,-0.0305,-0.0305,-0.0305,-0.0305,-0.0305,0,0.0246,0.0245,0.0237,0.0234,0.0239,0.0224,0.0243,0.0229,0.0243,0.0273,0.0229,0.0251,0.0116,0.006,-0.0065,-0.018,-0.0161,-0.0306,-0.0336,-0.0303,-0.0303,-0.0345,-0.0349,-0.0305,-0.0305,-0.0305,-0.0305,0,0.0266,0.026,0.026,0.0249,0.0251,0.026,0.0281,0.0299,0.0324,0.038,0.0393,0.0368,0.0303,0.0167,0.0028,-0.0095,-0.0216,-0.0262,-0.0205,-0.0228,-0.0352,-0.0354,-0.0341,-0.0341,-0.0342,-0.0342,-0.0343,0,0.0278,0.0284,0.0279,0.0285,0.0286,0.0301,0.0315,0.033,0.0369,0.045,0.0485,0.0467,0.0449,0.0253,0.0041,-0.015,-0.0192,-0.0243,-0.0304,-0.0323,-0.0353,-0.0354,-0.0356,-0.0256,-0.0255,-0.0255,-0.0255,0,0.0303,0.0307,0.0306,0.0311,0.0329,0.0355,0.0391,0.0434,0.0489,0.0561,0.0649,0.0657,0.049,0.0315,0.0061,-0.008,-0.0215,-0.0245,-0.0262,-0.0262,-0.0246,-0.0275,-0.0278,-0.0252,-0.0252,-0.0252,-0.0252,-0.0253,0.0336,0.0332,0.0336,0.0348,0.0376,0.0434,0.0486,0.0551,0.0649,0.0781,0.075,0.0782,0.057,0.025,0.004,-0.0182,-0.021,-0.0292,-0.0292,-0.0292,-0.0292,-0.0279,-0.0289,-0.029,-0.029,-0.0291,-0.0291,0,0.0374,0.0364,0.0371,0.0404,0.0457,0.0462,0.0559,0.0639,0.0794,0.0857,0.0927,0.0749,0.0552,0.0323,-0.0002,-0.0219,-0.0235,-0.0272,-0.0239,-0.0241,-0.0243,-0.024,-0.0224,-0.0224,-0.0224,-0.0224,0,0,0.0395,0.0396,0.0389,0.0482,0.0521,0.0633,0.0708,0.0831,0.0908,0.0997,0.1005,0.0917,0.0627,0.0405,0.0132,-0.0031,-0.0088,-0.0068,-0.0102,-0.0032,-0.0031,-0.0238,-0.0233,0,0,0,0,0]}],[{"header":{"parameterUnit":"m.s-1","parameterCategory":2,"la1":30.2991,"la2":30.254,"lo1":-89.0895,"lo2":-89.0444,"dy":0.0017,"dx":0.0017,"nx":28,"ny":28,"refTime":"2024-05-19T03:00:00:Z","depth":"4","parameterNumber":2,"parameterNumberName":"U-component_of_CURRENTS"},"data":[0,0,0,0,0,0,0,0,0,0,0,0,0,0,0,0,0,0,0,0,0,0,0,0,0,0,0,0,0,0,0,0,0,0,0,0,0,0,0,0,0,0,0,0,0,0,0,0,0,0,0,0,0,0,0,0,0,0,0.0301,0.0301,0,0.03,0.03,0.03,0.0339,0.034,0.0341,0.0342,0.0333,0.0332,0.033,0,0,0,0,0,0,0,0,0,0,0,0,0,0.0274,0.0275,0.0301,0.0301,0.0301,0.03,0.03,0.03,0.0339,0.034,0.0341,0.0342,0.0333,0.0332,0.033,0,0,0,0,0,0,0,0,0,0,0,0,0,0.028,0.0275,0.0301,0.0321,0.0323,0.03,0.03,0.03,0.0338,0.034,0.0342,0.0343,0.0334,0.0332,0.033,0.0286,0,0,0.0324,0.0323,0,0,0,0,0,0,0,0,0.028,0.0281,0.0318,0.0319,0.0321,0.0322,0.0287,0.0295,0.0338,0.0332,0.0342,0.0344,0.0328,0.0326,0.0322,0.0285,0.0285,0.0324,0.0323,0.0322,0.0322,0,0,0,0,0,0,0,0.0279,0.0281,0.03,0.0318,0.032,0.0308,0.0312,0.0289,0.032,0.0332,0.0335,0.0336,0.0329,0.0323,0.0322,0.0285,0.0324,0.0322,0.0321,0.0321,0.0306,0.0307,0,0,0,0,0,0,0.0282,0.0281,0.03,0.03,0.0305,0.0308,0.0311,0.032,0.032,0.0322,0.0334,0.0338,0.0326,0.0324,0.0322,0.034,0.0322,0.032,0.0319,0.0306,0.0306,0.0307,0,0,0,0,0,0,0.0282,0.0284,0.03,0.0291,0.0292,0.0307,0.0316,0.0319,0.0346,0.0322,0.0324,0.0363,0.0327,0.0324,0.0331,0.0337,0.032,0.0318,0.0305,0.0306,0.0307,0.0331,0,0,0,0,0,0,0.0281,0.0284,0.0291,0.0291,0.0293,0.031,0.0314,0.0318,0.0342,0.0347,0.0346,0.0345,0.0328,0.0334,0.0329,0.0334,0.0316,0.0304,0.0305,0.0306,0.0329,0.0333,0.0336,0,0,0,0,0,0.028,0.0293,0.0292,0.0294,0.0302,0.0311,0.0311,0.0326,0.0343,0.0357,0.0359,0.0347,0.0339,0.0332,0.0326,0.0332,0.0303,0.0305,0.0306,0.0328,0.0332,0.0336,0,0,0,0,0,0,0.0296,0.0298,0.0297,0.0312,0.0318,0.0318,0.0326,0.0341,0.0353,0.0358,0.0349,0.0348,0.0356,0.0343,0.0336,0.0335,0.0321,0.0322,0.034,0.0343,0.0347,0.0353,0.0315,0,0,0,0,0,0.0297,0.0298,0.0305,0.0315,0.032,0.0326,0.0333,0.0343,0.035,0.0359,0.0361,0.0359,0.0351,0.035,0.0339,0.0332,0.0339,0.0336,0.0339,0.0342,0.0344,0.0358,0.0362,0.0313,0.0313,0.0313,0,0,0.0306,0.0303,0.0308,0.0316,0.0317,0.0322,0.0336,0.035,0.0359,0.0351,0.0371,0.0369,0.0353,0.035,0.0353,0.0345,0.0364,0.0344,0.0346,0.0347,0.036,0.0365,0.0369,0.0314,0.0314,0.0314,0,0,0.0308,0.0323,0.0319,0.0325,0.0328,0.033,0.0344,0.0358,0.0376,0.0382,0.0385,0.0392,0.0381,0.0373,0.0365,0.0379,0.0382,0.0384,0.04,0.0413,0.0417,0.0421,0.0454,0.046,0.0384,0.0384,0.0384,0,0.0309,0.0316,0.0321,0.0319,0.0325,0.0341,0.0347,0.0358,0.0375,0.0389,0.0395,0.0398,0.0386,0.0385,0.0394,0.0384,0.0406,0.0384,0.0417,0.0421,0.0424,0.0457,0.0463,0.0385,0.0385,0.0385,0.0385,0,0.031,0.0317,0.032,0.0315,0.0324,0.0336,0.0349,0.0371,0.0391,0.04,0.0422,0.0409,0.042,0.0413,0.0404,0.0424,0.0438,0.0421,0.0406,0.0431,0.0464,0.047,0.0387,0.0387,0.0386,0.0386,0,0,0.0306,0.0314,0.0315,0.0318,0.0328,0.0337,0.0355,0.0377,0.0406,0.0415,0.0451,0.0433,0.0452,0.0446,0.0443,0.0446,0.0488,0.045,0.045,0.0482,0.0545,0.0524,0.0529,0.0483,0.0484,0.0485,0.0566,0,0.0301,0.0296,0.0305,0.0315,0.0321,0.0343,0.0363,0.0385,0.0411,0.0452,0.0451,0.0482,0.0458,0.0482,0.0478,0.0494,0.0504,0.0469,0.0518,0.052,0.0496,0.0534,0.0488,0.0571,0.0572,0.0573,0.0574,0,0.0301,0.0299,0.0304,0.0324,0.0331,0.0345,0.0391,0.0411,0.046,0.0486,0.0513,0.0534,0.056,0.0533,0.0562,0.0549,0.0553,0.055,0.0553,0.0526,0.051,0.0537,0.0585,0.0584,0.0584,0.0583,0.0582,0,0.0293,0.0303,0.0308,0.0315,0.0338,0.036,0.0385,0.043,0.0466,0.0531,0.0579,0.0596,0.0646,0.0633,0.0644,0.0619,0.0674,0.0635,0.0615,0.0614,0.0597,0.0592,0.0646,0.0646,0.0646,0.0646,0.0646,0,0.0283,0.0289,0.0314,0.0317,0.0344,0.0371,0.0417,0.0447,0.0516,0.0563,0.0613,0.0644,0.0678,0.0714,0.0682,0.0686,0.0712,0.0631,0.0633,0.0609,0.0604,0.0603,0.0597,0.0649,0.0648,0.0648,0.0647,0,0.0261,0.0276,0.0287,0.0321,0.0337,0.0363,0.0433,0.0472,0.0551,0.0622,0.0659,0.0727,0.076,0.0784,0.079,0.0762,0.0743,0.0732,0.0743,0.0741,0.0666,0.066,0.0719,0.0719,0.0719,0.0719,0.0719,0,0.0241,0.0252,0.0281,0.0295,0.0312,0.0363,0.0397,0.0475,0.0524,0.0639,0.067,0.0757,0.0784,0.0806,0.0791,0.0779,0.0748,0.078,0.068,0.0677,0.0673,0.0667,0.0662,0.0719,0.0718,0.0718,0.0718,0,0.0222,0.0242,0.0239,0.0264,0.0301,0.0338,0.0403,0.0437,0.0538,0.0628,0.0698,0.0733,0.0778,0.0771,0.0811,0.0765,0.078,0.0778,0.0776,0.0682,0.0677,0.0672,0.0667,0.0718,0.0718,0.0718,0.0718,0,0.0208,0.0201,0.0213,0.0225,0.0269,0.0303,0.0336,0.0414,0.048,0.0632,0.0631,0.0696,0.0764,0.0761,0.0751,0.0764,0.0721,0.071,0.0711,0.0711,0.0664,0.0655,0.0703,0,0,0,0,0,0.0204,0.0186,0.0184,0.0195,0.0233,0.0264,0.0337,0.038,0.0488,0.0541,0.0603,0.0632,0.0667,0.067,0.0671,0.0683,0.0689,0.0681,0.0668,0.0717,0.0717,0.0658,0,0,0,0,0,0,0.0225,0.0193,0.0166,0.0173,0.0181,0.0229,0.027,0.0333,0.0376,0.0489,0.0499,0.0615,0.0626,0.0662,0.0663,0.067,0.0657,0.0728,0.0728,0.0716,0.0717,0.0717,0.0657,0,0,0,0,0]},{"header":{"parameterUnit":"m.s-1","parameterCategory":2,"la1":30.2991,"la2":30.254,"lo1":-89.0895,"lo2":-89.0444,"dy":0.0017,"dx":0.0017,"nx":28,"ny":28,"refTime":"2024-05-19T03:00:00:Z","depth":"4","parameterNumber":3,"parameterNumberName":"V-component_of_CURRENTS"},"data":[0,0,0,0,0,0,0,0,0,0,0,0,0,0,0,0,0,0,0,0,0,0,0,0,0,0,0,0,0,0,0,0,0,0,0,0,0,0,0,0,0,0,0,0,0,0,0,0,0,0,0,0,0,0,0,0,0,0,0.0238,0.0238,0,0.0256,0.0256,0.0256,0.0285,0.0285,0.0286,0.0287,0.0268,0.0267,0.0265,0,0,0,0,0,0,0,0,0,0,0,0,0,0.0218,0.0218,0.0238,0.0238,0.0239,0.0256,0.0256,0.0256,0.0285,0.0286,0.0286,0.0287,0.0268,0.0267,0.0265,0,0,0,0,0,0,0,0,0,0,0,0,0,0.0228,0.0218,0.0237,0.0257,0.0259,0.0256,0.0256,0.0256,0.0284,0.0286,0.0287,0.0288,0.0269,0.0267,0.0265,0.023,0,0,0.0259,0.0259,0,0,0,0,0,0,0,0,0.0227,0.0228,0.0254,0.0256,0.0258,0.0272,0.0242,0.0247,0.0284,0.0272,0.0287,0.0288,0.0267,0.0265,0.0262,0.0229,0.0229,0.0259,0.0258,0.0257,0.0257,0,0,0,0,0,0,0,0.0226,0.0227,0.0242,0.0254,0.0257,0.0262,0.0265,0.0243,0.0259,0.0273,0.0276,0.0282,0.0267,0.0264,0.0262,0.0228,0.0259,0.0258,0.0257,0.0256,0.0199,0.0198,0,0,0,0,0,0,0.0229,0.0226,0.0241,0.0243,0.0248,0.0262,0.0264,0.0264,0.0261,0.0262,0.0281,0.0283,0.0267,0.0264,0.0261,0.0234,0.0257,0.0256,0.0255,0.0199,0.0198,0.0198,0,0,0,0,0,0,0.0228,0.023,0.0241,0.0238,0.024,0.0261,0.026,0.0264,0.0255,0.0268,0.0269,0.027,0.0268,0.0264,0.0257,0.0233,0.0255,0.0253,0.0199,0.0199,0.0198,0.0169,0,0,0,0,0,0,0.0227,0.0229,0.0231,0.0238,0.0241,0.0243,0.026,0.0263,0.026,0.0262,0.0258,0.0258,0.0268,0.026,0.0255,0.0231,0.0252,0.02,0.0199,0.0198,0.0171,0.0168,0.0165,0,0,0,0,0,0.0227,0.0224,0.023,0.0233,0.0241,0.0244,0.0245,0.0262,0.0258,0.0256,0.0261,0.0258,0.0251,0.0258,0.0253,0.0227,0.02,0.0199,0.0198,0.0172,0.0168,0.0165,0,0,0,0,0,0,0.0216,0.0228,0.0234,0.0236,0.0242,0.025,0.0254,0.0249,0.0248,0.0244,0.0252,0.0253,0.0237,0.0236,0.0243,0.021,0.0224,0.0222,0.0206,0.0202,0.0199,0.0178,0.025,0,0,0,0,0,0.0214,0.0213,0.0226,0.0224,0.0231,0.0234,0.0235,0.0234,0.0236,0.0236,0.0235,0.0231,0.0227,0.022,0.0217,0.0192,0.0167,0.0173,0.017,0.0168,0.0148,0.0096,0.0086,0.0195,0.0195,0.0195,0,0,0.0212,0.0214,0.0217,0.0222,0.0229,0.0232,0.0237,0.0228,0.0225,0.0231,0.0224,0.0218,0.0219,0.0205,0.0196,0.0202,0.0126,0.0166,0.0164,0.0145,0.0094,0.0083,0.0073,0.0194,0.0194,0.0195,0,0,0.0206,0.0208,0.0212,0.0213,0.0215,0.0216,0.0209,0.0206,0.0207,0.0194,0.02,0.0178,0.0175,0.0168,0.0165,0.0137,0.0115,0.0137,0.01,0.005,0.004,0.0031,-0.0007,-0.002,0.0134,0.0134,0.0134,0,0.0206,0.0207,0.0212,0.0214,0.0218,0.0207,0.021,0.0202,0.0193,0.0184,0.0192,0.0157,0.0154,0.0125,0.0121,0.0126,0.01,0.0113,0.0044,0.0035,0.0026,-0.0011,-0.0025,0.0132,0.0133,0.0133,0.0133,0,0.0206,0.0207,0.0206,0.0208,0.0212,0.0202,0.0203,0.0187,0.0175,0.0164,0.013,0.0119,0.0095,0.009,0.0096,0.0031,0.0034,0.0047,0.0049,0.0012,-0.0023,-0.0037,0.013,0.0131,0.0131,0.0132,0,0,0.0203,0.0209,0.0206,0.0214,0.0203,0.0206,0.0192,0.018,0.0164,0.0132,0.0105,0.0074,0.0044,0.0037,0.0026,-0.0023,-0.0105,-0.0021,-0.0023,-0.0067,-0.0217,-0.0146,-0.0153,-0.0107,-0.011,-0.0112,-0.0214,0,0.0203,0.0212,0.0207,0.021,0.0224,0.0206,0.02,0.0178,0.0159,0.0127,0.0077,0.0052,0.0033,0.0014,-0.0046,-0.0088,-0.0144,-0.0079,-0.0169,-0.0172,-0.0111,-0.0168,-0.012,-0.0224,-0.0227,-0.0229,-0.0231,0,0.021,0.0214,0.0226,0.0227,0.023,0.022,0.0204,0.0194,0.0142,0.0124,0.006,0.003,-0.006,-0.0058,-0.0192,-0.0151,-0.0197,-0.0231,-0.0235,-0.0173,-0.0127,-0.0181,-0.0255,-0.0253,-0.0252,-0.025,-0.0248,0,0.0223,0.0226,0.0237,0.0237,0.0235,0.0226,0.0215,0.0184,0.0186,0.0111,0.0097,-0.0015,-0.0059,-0.016,-0.0236,-0.0225,-0.0368,-0.0354,-0.0337,-0.0332,-0.0351,-0.0341,-0.0454,-0.0454,-0.0454,-0.0453,-0.0453,0,0.0226,0.0236,0.0242,0.0244,0.0256,0.0242,0.0241,0.0213,0.0178,0.017,0.0089,0.005,-0.0088,-0.0173,-0.0257,-0.0341,-0.0391,-0.0367,-0.0363,-0.0358,-0.0347,-0.0361,-0.0348,-0.0457,-0.0456,-0.0456,-0.0455,0,0.0243,0.0246,0.0265,0.0261,0.0267,0.0272,0.028,0.0281,0.0236,0.0218,0.0195,0.0086,-0.0034,-0.0146,-0.0299,-0.0339,-0.0435,-0.0442,-0.0431,-0.042,-0.0365,-0.0353,-0.0462,-0.046,-0.0459,-0.0458,-0.0457,0,0.0253,0.0262,0.0286,0.0308,0.0306,0.032,0.0339,0.0313,0.0315,0.0242,0.0231,0.0119,0.0041,-0.0133,-0.0261,-0.0412,-0.0409,-0.0457,-0.0427,-0.0386,-0.0372,-0.0361,-0.0351,-0.0456,-0.0455,-0.0455,-0.0455,0,0.0263,0.0272,0.0283,0.0327,0.0354,0.0399,0.0408,0.0409,0.037,0.0354,0.0268,0.0166,0.0047,-0.0113,-0.021,-0.032,-0.0436,-0.0444,-0.0448,-0.042,-0.0379,-0.0364,-0.0355,-0.045,-0.0451,-0.0451,-0.0452,0,0.0264,0.0282,0.0295,0.0333,0.0394,0.0435,0.0439,0.043,0.0424,0.0348,0.0315,0.017,0.0081,-0.0064,-0.0173,-0.0258,-0.0277,-0.0294,-0.0305,-0.0311,-0.0222,-0.0145,-0.0164,0,0,0,0,0,0.0259,0.0271,0.0305,0.0341,0.0409,0.0441,0.0473,0.0468,0.0437,0.0403,0.036,0.0251,0.0085,-0.0013,-0.0085,-0.0158,-0.03,-0.0243,-0.0326,-0.0427,-0.0432,-0.0345,0,0,0,0,0,0,0.0261,0.0275,0.029,0.0344,0.0384,0.0447,0.0472,0.0451,0.0423,0.0383,0.0291,0.0261,0.009,0.0133,-0.008,-0.011,-0.0165,-0.0321,-0.0322,-0.0424,-0.0429,-0.0433,-0.0345,0,0,0,0,0]}]]